Location: Rounton
(54.4000°N, 1.3500°W)
Time: 02:12:49
(UTC+00:00)

A-11 Canister half - Pass Details

Date: 03 December 2021
Orbit: 1524 x 1684 km, 47.3° (Epoch: 19 January)

Event Time Altitude Azimuth Distance (km) Brightness Sun altitude
Exits shadow 03:42:22 55° 172° (S) 1,949 9.3 -37.0°
Maximum altitude 03:42:37 55° 167° (SSE) 1,947 9.3 -36.9°
Drops below altitude 10° 03:52:09 10° 94° (E) 3,866 11.8 -35.6°
Sets 03:55:18 0° 90° (E) 4,832 12.6 -35.1°
